GW1430 Weather Reports


time (UTC)temp
C
wind
direction
speed
KPH
gust
KPH
rain 1hr
cm
rain 24hr
cm
rain mn
cm
humidity
%
barometer
mb
20260506215059 20 10 9.7 0.0 0.00 0.00 0.00 73 1011.4
20260506214602 20 10 8.0 0.0 0.00 0.00 0.00 72 1011.3
20260506214059 20 339 8.0 0.0 0.00 0.00 0.00 74 1011.3
20260506213558 20 37 9.7 0.0 0.00 0.00 0.00 73 1011.2
20260506213058 20 330 9.7 0.0 0.00 0.00 0.00 74 1011.2
20260506212558 20 345 11.3 0.0 0.00 0.00 0.00 73 1011.4
20260506212101 20 315 11.3 0.0 0.00 0.00 0.00 72 1011.3
20260506211609 21 318 9.7 0.0 0.00 0.00 0.00 71 1011.2
20260506211057 21 317 9.7 0.0 0.00 0.00 0.00 70 1011.1
20260506210557 21 323 11.3 0.0 0.00 0.00 0.00 71 1011.2
20260506210057 21 331 9.7 0.0 0.00 0.00 0.00 70 1011.3
20260506205556 21 333 9.7 0.0 0.00 0.00 0.00 69 1011.3
20260506205056 22 355 8.0 0.0 0.00 0.00 0.00 72 1011.4
20260506204556 22 5 8.0 0.0 0.00 0.00 0.00 70 1011.6
20260506204058 22 14 8.0 0.0 0.00 0.00 0.00 71 1011.5
20260506203555 22 346 9.7 0.0 0.00 0.00 0.00 70 1011.5
20260506203055 21 333 11.3 0.0 0.00 0.00 0.00 72 1011.4
20260506202555 22 314 9.7 0.0 0.00 0.00 0.00 73 1011.4
20260506202055 22 306 9.7 0.0 0.00 0.00 0.00 72 1011.4
20260506201555 22 355 9.7 0.0 0.00 0.00 0.00 73 1011.2
20260506201054 22 323 9.7 0.0 0.00 0.00 0.00 74 1011.2
20260506200554 22 329 11.3 0.0 0.00 0.00 0.00 74 1011.1
20260506200055 22 32 11.3 0.0 0.00 0.00 0.00 75 1011.0
20260506195554 22 5 11.3 0.0 0.00 0.00 0.00 73 1011.0
20260506195054 22 319 9.7 0.0 0.00 0.00 0.00 72 1010.9
20260506194555 23 5 8.0 0.0 0.00 0.00 0.00 73 1010.8
20260506194054 23 325 6.4 0.0 0.00 0.00 0.00 72 1010.7
20260506193553 24 310 8.0 0.0 0.00 0.00 0.00 73 1010.8
20260506193053 24 325 8.0 0.0 0.00 0.00 0.00 72 1010.6
20260506192553 24 19 8.0 0.0 0.00 0.00 0.00 72 1010.5
20260506192053 25 17 8.0 0.0 0.00 0.00 0.00 72 1010.6
20260506191554 25 259 6.4 0.0 0.00 0.00 0.00 72 1010.7
20260506191053 25 355 6.4 0.0 0.00 0.00 0.00 70 1010.9
20260506190553 25 302 6.4 0.0 0.00 0.00 0.00 69 1011.0
20260506190055 26 321 8.0 0.0 0.00 0.00 0.00 70 1010.9
20260506185552 25 313 6.4 0.0 0.00 0.00 0.00 69 1010.9
20260506185051 26 323 4.8 0.0 0.00 0.00 0.00 71 1010.8
20260506184552 25 325 6.4 0.0 0.00 0.00 0.00 71 1010.8
20260506184051 25 38 8.0 0.0 0.00 0.00 0.00 72 1010.8
20260506183551 25 5 6.4 0.0 0.00 0.00 0.00 72 1010.8
20260506183051 24 20 4.8 0.0 0.00 0.00 0.00 72 1010.9
20260506182549 24 142 4.8 0.0 0.00 0.00 0.00 75 1010.9
20260506182049 23 30 4.8 0.0 0.00 0.00 0.00 75 1011.0
20260506181549 23 41 4.8 0.0 0.00 0.00 0.00 75 1011.0
20260506181049 23 42 4.8 0.0 0.00 0.00 0.00 76 1010.9
20260506180549 23 28 4.8 0.0 0.00 0.00 0.00 76 1010.9
20260506180048 23 29 3.2 0.0 0.00 0.00 0.00 78 1010.8
20260506175547 23 133 4.8 0.0 0.00 0.00 0.00 78 1010.8
20260506175047 22 50 4.8 0.0 0.00 0.00 0.00 78 1010.8
20260506174548 22 42 4.8 0.0 0.00 0.00 0.00 78 1010.8
20260506174048 22 309 4.8 0.0 0.00 0.00 0.00 80 1010.9
20260506173549 21 26 4.8 0.0 0.00 0.00 0.00 81 1011.0
20260506173058 21 22 6.4 0.0 0.00 0.00 0.00 80 1011.0
20260506172549 21 42 8.0 0.0 0.00 0.00 0.00 83 1011.0
20260506172046 21 24 8.0 0.0 0.00 0.00 0.00 83 1011.1
20260506171552 20 9 6.4 0.0 0.00 0.00 0.00 83 1011.1
20260506171046 20 80 8.0 0.0 0.00 0.00 0.00 85 1011.1
20260506170546 20 60 8.0 0.0 0.00 0.00 0.00 87 1010.9
20260506170047 19 30 6.4 0.0 0.00 0.00 0.00 88 1011.0
20260506165547 19 44 8.0 0.0 0.00 0.00 0.00 88 1011.3
20260506165045 19 20 8.0 0.0 0.00 0.00 0.00 88 1011.3
20260506164558 18 290 6.4 0.0 0.00 0.00 0.00 88 1011.4
20260506164045 18 32 8.0 0.0 0.00 0.00 0.00 87 1011.4
20260506163545 18 311 9.7 0.0 0.00 0.00 0.00 86 1011.5
20260506163046 18 30 12.9 0.0 0.00 0.00 0.00 86 1011.9
20260506162543 18 14 14.5 0.0 0.00 0.00 0.00 85 1012.1
20260506162042 18 335 16.1 0.0 0.00 0.00 0.00 85 1012.4
20260506161541 18 351 14.5 0.0 0.00 0.00 0.00 85 1012.3
20260506161039 19 34 12.9 0.0 0.00 0.00 0.00 85 1012.2
20260506160539 19 342 11.3 0.0 0.00 0.00 0.00 85 1012.1
20260506160043 20 351 9.7 0.0 0.00 0.00 0.00 84 1012.2
20260506155535 20 19 12.9 0.0 0.00 0.00 0.00 84 1012.3
20260506155034 20 355 12.9 0.0 0.00 0.00 0.00 83 1011.9
20260506154533 21 329 11.3 0.0 0.00 0.00 0.00 81 1011.7
20260506154031 22 13 9.7 0.0 0.00 0.00 0.00 81 1011.4
20260506153528 24 355 4.8 0.0 0.00 0.00 0.00 80 1011.4
20260506153030 25 100 1.6 0.0 0.00 0.00 0.00 85 1011.0
20260506152527 25 100 1.6 0.0 0.00 0.00 0.00 85 1010.8
20260506152027 25 117 1.6 0.0 0.00 0.00 0.00 85 1010.3
20260506151527 25 49 1.6 0.0 0.00 0.00 0.00 85 1010.5
20260506151026 25 49 3.2 0.0 0.00 0.00 0.00 85 1010.5
20260506150526 25 49 3.2 0.0 0.00 0.00 0.00 85 1010.4
20260506150025 25 44 3.2 0.0 0.00 0.00 0.00 85 1010.3
20260506145524 25 132 3.2 0.0 0.00 0.00 0.00 85 1010.1
20260506145023 25 145 1.6 0.0 0.00 0.00 0.00 85 1009.9
20260506144529 25 140 1.6 0.0 0.00 0.00 0.00 85 1009.9
20260506144025 25 84 3.2 0.0 0.00 0.00 0.00 85 1009.7
20260506143523 25 122 3.2 0.0 0.00 0.00 0.00 85 1009.6
20260506143031 25 91 3.2 0.0 0.00 0.00 0.00 86 1009.6
20260506142524 25 214 3.2 0.0 0.00 0.00 0.00 86 1009.4
20260506142020 25 204 3.2 0.0 0.00 0.00 0.00 87 1009.2
20260506141520 25 101 1.6 0.0 0.00 0.00 0.00 87 1009.2
20260506141019 25 84 1.6 0.0 0.00 0.00 0.00 87 1009.5
20260506140519 25 130 0.0 0.0 0.00 0.00 0.00 88 1009.9
20260506140016 25 130 1.6 0.0 0.00 0.00 0.00 88 1009.8
20260506135515 25 130 1.6 0.0 0.00 0.00 0.00 88 1009.4
20260506135014 25 130 0.0 0.0 0.00 0.00 0.00 88 1009.1
20260506134514 24 130 1.6 0.0 0.00 0.00 0.00 88 1008.9
20260506134014 24 130 1.6 0.0 0.00 0.00 0.00 88 1009.0
20260506133513 24 26 1.6 0.0 0.00 0.00 0.00 88 1008.9
20260506133014 24 123 1.6 0.0 0.00 0.00 0.00 88 1008.9
20260506132512 24 141 3.2 0.0 0.00 0.00 0.00 88 1008.9
20260506132015 24 131 3.2 0.0 0.00 0.00 0.00 88 1008.9
20260506131517 24 98 1.6 0.0 0.00 0.00 0.00 89 1008.9
20260506131011 24 177 1.6 0.0 0.00 0.00 0.00 89 1008.8
20260506130514 24 214 3.2 0.0 0.00 0.00 0.00 89 1008.8
20260506130015 24 215 3.2 0.0 0.00 0.00 0.00 89 1008.7
20260506125509 24 84 1.6 0.0 0.00 0.00 0.00 89 1008.7
20260506125011 24 116 1.6 0.0 0.00 0.00 0.00 89 1008.6
20260506124509 24 116 1.6 0.0 0.00 0.00 0.00 89 1008.6
20260506124011 23 98 1.6 0.0 0.00 0.00 0.00 89 1008.7
20260506123509 23 96 1.6 0.0 0.00 0.00 0.00 89 1008.7
20260506123009 23 114 1.6 0.0 0.00 0.00 0.00 88 1008.7
20260506122509 23 92 1.6 0.0 0.00 0.00 0.00 88 1008.7
20260506122008 23 92 0.0 0.0 0.00 0.00 0.00 88 1008.7
20260506121508 23 129 0.0 0.0 0.00 0.00 0.00 88 1008.7
20260506121008 23 129 1.6 0.0 0.00 0.00 0.00 88 1008.7
20260506120507 23 129 1.6 0.0 0.00 0.00 0.00 88 1008.6
20260506120007 23 193 1.6 0.0 0.00 0.00 0.00 88 1008.5
20260506115506 23 193 0.0 0.0 0.00 0.00 0.00 88 1008.4
20260506115005 23 193 1.6 0.0 0.00 0.00 0.00 88 1008.5
20260506114508 23 193 1.6 0.0 0.00 0.00 0.00 88 1008.5
20260506114005 24 193 1.6 0.0 0.00 0.00 0.00 88 1008.5
20260506113505 24 193 1.6 0.0 0.00 0.00 0.00 88 1008.5
20260506113008 24 193 1.6 0.0 0.00 0.00 0.00 88 1008.5
20260506112506 24 193 1.6 0.0 0.00 0.00 0.00 88 1008.5
20260506112006 24 144 1.6 0.0 0.00 0.00 0.00 88 1008.5
20260506111505 24 144 1.6 0.0 0.00 0.00 0.00 88 1008.5
20260506111004 24 172 1.6 0.0 0.00 0.00 0.00 88 1008.5
20260506110504 24 101 1.6 0.0 0.00 0.00 0.00 88 1008.4
20260506110004 24 192 1.6 0.0 0.00 0.00 0.00 88 1008.5
20260506105503 24 220 1.6 0.0 0.00 0.00 0.00 88 1008.5
20260506105002 24 111 1.6 0.0 0.00 0.00 0.00 88 1008.4
20260506104502 24 234 1.6 0.0 0.00 0.00 0.00 88 1008.4
20260506104003 24 128 1.6 0.0 0.00 0.00 0.00 88 1008.3
20260506103502 24 95 0.0 0.0 0.00 0.00 0.00 88 1008.2
20260506103101 24 156 0.0 0.0 0.00 0.00 0.00 88 1008.2
20260506102600 24 156 1.6 0.0 0.00 0.00 0.00 88 1008.2
20260506102059 24 176 3.2 0.0 0.00 0.00 0.00 88 1008.1
20260506101559 24 175 1.6 0.0 0.00 0.00 0.00 88 1008.0
20260506101059 24 182 3.2 0.0 0.00 0.00 0.00 88 1008.0
20260506100558 24 198 3.2 0.0 0.00 0.00 0.00 88 1008.0
20260506100058 24 132 1.6 0.0 0.00 0.00 0.00 88 1007.9
20260506095558 24 207 3.2 0.0 0.00 0.00 0.00 88 1007.8
20260506095058 24 171 4.8 0.0 0.00 0.00 0.00 88 1007.7
20260506094558 24 190 3.2 0.0 0.00 0.00 0.00 88 1007.7
20260506094058 24 186 4.8 0.0 0.00 0.00 0.00 88 1007.6
20260506093557 24 205 3.2 0.0 0.00 0.00 0.00 88 1007.5
20260506093057 24 184 3.2 0.0 0.00 0.00 0.00 88 1007.4
20260506092557 24 118 4.8 0.0 0.00 0.00 0.00 88 1007.3
20260506092057 24 223 3.2 0.0 0.00 0.00 0.00 88 1007.3
20260506091557 24 187 3.2 0.0 0.00 0.00 0.00 88 1007.3
20260506091056 24 186 3.2 0.0 0.00 0.00 0.00 88 1007.2
20260506090556 24 147 3.2 0.0 0.00 0.00 0.00 88 1007.1
20260506090056 24 219 3.2 0.0 0.00 0.00 0.00 88 1007.1
20260506085554 24 196 3.2 0.0 0.00 0.00 0.00 88 1007.1
20260506085054 24 139 4.8 0.0 0.00 0.00 0.00 88 1007.2
20260506084554 24 208 3.2 0.0 0.00 0.00 0.00 88 1007.2
20260506084053 24 236 3.2 0.0 0.00 0.00 0.00 88 1007.2
20260506083553 24 208 3.2 0.0 0.00 0.00 0.00 88 1007.3
20260506083053 24 200 3.2 0.0 0.00 0.00 0.00 88 1007.2
20260506082552 24 178 4.8 0.0 0.00 0.00 0.00 88 1007.3
20260506082052 24 213 4.8 0.0 0.00 0.00 0.00 88 1007.2
20260506081553 24 190 3.2 0.0 0.00 0.00 0.00 87 1007.2
20260506081052 24 185 4.8 0.0 0.00 0.00 0.00 87 1007.2
20260506080552 24 151 3.2 0.0 0.00 0.00 0.00 87 1007.2
20260506073054 24 211 4.8 0.0 0.00 0.00 0.00 87 1007.5
20260506072548 24 175 4.8 0.0 0.00 0.00 0.00 87 1007.6
20260506072047 24 203 4.8 0.0 0.00 0.00 0.00 87 1007.8
20260506071551 24 224 4.8 0.0 0.00 0.00 0.00 87 1007.8
20260506071046 24 143 6.4 0.0 0.00 0.00 0.00 87 1007.7
20260506070546 24 169 4.8 0.0 0.00 0.00 0.00 87 1007.8
20260506070106 24 221 4.8 0.0 0.00 0.00 0.00 87 1007.8
20260506062046 24 186 4.8 0.0 0.00 0.00 0.00 87 1007.9
20260506061645 24 168 4.8 0.0 0.00 0.00 0.00 87 1007.9
20260506061046 24 151 4.8 0.0 0.00 0.00 0.00 87 1007.8
20260506060542 24 180 4.8 0.0 0.00 0.00 0.00 87 1007.9
20260506051037 25 211 4.8 0.0 0.00 0.00 0.00 86 1008.0
20260506050536 25 130 3.2 0.0 0.00 0.00 0.00 86 1007.9
20260506045033 25 149 4.8 0.0 0.00 0.00 0.00 86 1007.9
20260506044546 25 196 4.8 0.0 0.00 0.00 0.00 86 1007.9
20260506044032 25 190 3.2 0.0 0.00 0.00 0.00 86 1008.0
20260506043533 25 184 3.2 0.0 0.00 0.00 0.00 86 1008.0
20260506043033 25 100 4.8 0.0 0.00 0.00 0.00 86 1007.9
20260506042532 25 128 3.2 0.0 0.00 0.00 0.00 86 1007.9
20260506042032 25 114 3.2 0.0 0.00 0.00 0.00 85 1007.7
20260506041535 25 141 4.8 0.0 0.00 0.00 0.00 85 1007.7
20260506041032 25 101 4.8 0.0 0.00 0.00 0.00 85 1007.7
20260506040532 25 179 4.8 0.0 0.00 0.00 0.00 85 1007.6
20260506040034 25 119 4.8 0.0 0.00 0.00 0.00 85 1007.5
20260506035532 25 156 4.8 0.0 0.00 0.00 0.00 85 1007.5
20260506035031 25 174 3.2 0.0 0.00 0.00 0.00 84 1007.3
20260506034531 25 73 3.2 0.0 0.00 0.00 0.00 84 1007.3
20260506034030 25 91 3.2 0.0 0.00 0.00 0.00 84 1007.3
20260506033530 25 208 3.2 0.0 0.00 0.00 0.00 84 1007.3
20260506033030 25 163 3.2 0.0 0.00 0.00 0.00 84 1007.3
20260506032530 25 217 3.2 0.0 0.00 0.00 0.00 84 1007.2
20260506032031 25 246 3.2 0.0 0.00 0.00 0.00 84 1007.2
20260506031534 25 250 4.8 0.0 0.00 0.00 0.00 84 1007.0
20260506031029 25 173 3.2 0.0 0.00 0.00 0.00 83 1007.0
20260506030529 25 234 3.2 0.0 0.00 0.00 0.00 83 1007.0
20260506030030 26 133 4.8 0.0 0.00 0.00 0.00 83 1006.9
20260506025532 26 144 4.8 0.0 0.00 0.00 0.00 82 1006.8
20260506025029 26 195 4.8 0.0 0.00 0.00 0.00 82 1006.7
20260506024534 26 161 4.8 0.0 0.00 0.00 0.00 82 1006.7
20260506024029 26 136 3.2 0.0 0.00 0.00 0.00 81 1006.6
20260506023529 26 173 4.8 0.0 0.00 0.00 0.00 81 1006.4
20260506023028 26 185 4.8 0.0 0.00 0.00 0.00 80 1006.3
20260506022528 26 113 4.8 0.0 0.00 0.00 0.00 80 1006.2
20260506022028 26 96 3.2 0.0 0.00 0.00 0.00 79 1006.1
20260506021528 26 169 3.2 0.0 0.00 0.00 0.00 79 1005.9
20260506021028 26 155 3.2 0.0 0.00 0.00 0.00 79 1005.9
20260506020530 26 168 3.2 0.0 0.00 0.00 0.00 78 1005.8
20260506020028 26 215 1.6 0.0 0.00 0.00 0.00 78 1005.8
20260506015527 26 178 3.2 0.0 0.00 0.00 0.00 78 1005.7
20260506015027 27 129 3.2 0.0 0.00 0.00 0.00 78 1005.7
20260506014528 27 101 3.2 0.0 0.00 0.00 0.00 77 1005.6
20260506014026 27 161 3.2 0.0 0.00 0.00 0.00 77 1005.7
20260506013526 27 234 3.2 0.0 0.00 0.00 0.00 77 1005.7
20260506013027 27 110 1.6 0.0 0.00 0.00 0.00 77 1005.6
20260506012528 27 88 1.6 0.0 0.00 0.00 0.00 76 1005.6
20260506012027 27 151 1.6 0.0 0.00 0.00 0.00 76 1005.6
20260506011528 27 134 1.6 0.0 0.00 0.00 0.00 76 1005.6
20260506011027 27 159 1.6 0.0 0.00 0.00 0.00 75 1005.7
20260506010526 27 154 1.6 0.0 0.00 0.00 0.00 75 1005.7
20260506010026 27 112 1.6 0.0 0.00 0.00 0.00 75 1005.7
20260506005526 27 218 1.6 0.0 0.00 0.00 0.00 74 1005.6
20260506005027 28 150 1.6 0.0 0.00 0.00 0.00 74 1005.6
20260506004529 28 217 1.6 0.0 0.00 0.00 0.00 74 1005.7
20260506004024 28 106 1.6 0.0 0.00 0.00 0.00 74 1005.6
20260506003525 28 227 3.2 0.0 0.00 0.00 0.00 74 1005.5
20260506003025 28 80 3.2 0.0 0.00 0.00 0.00 73 1005.5
20260506002524 28 132 1.6 0.0 0.00 0.00 0.00 73 1005.5
20260506002024 28 175 3.2 0.0 0.00 0.00 0.00 73 1005.5
20260506001524 28 178 3.2 0.0 0.00 0.00 0.00 72 1005.5
20260506001024 28 174 3.2 0.0 0.00 0.00 0.00 72 1005.4
20260506000524 28 206 3.2 0.0 0.00 0.00 0.00 72 1005.4
20260506000023 28 221 3.2 0.0 0.00 0.00 0.00 72 1005.3
20260505235522 28 193 3.2 0.0 0.00 0.00 0.00 72 1005.3
20260505235023 28 105 3.2 0.0 0.00 0.00 0.00 72 1005.2
20260505234548 28 131 3.2 0.0 0.00 0.00 0.00 72 1005.2
20260505234020 28 103 3.2 0.0 0.00 0.00 0.00 71 1005.1
20260505233520 28 9 3.2 0.0 0.00 0.00 0.00 71 1005.1
20260505233021 28 132 3.2 0.0 0.00 0.00 0.00 70 1005.1
20260505232520 28 134 3.2 0.0 0.00 0.00 0.00 70 1005.1
20260505232020 28 94 3.2 0.0 0.00 0.00 0.00 70 1005.1
20260505231520 28 257 3.2 0.0 0.00 0.00 0.00 71 1005.2
20260505231019 28 138 4.8 0.0 0.00 0.00 0.00 71 1005.2
20260505230519 29 142 4.8 0.0 0.00 0.00 0.00 71 1005.1
20260505230019 29 154 6.4 0.0 0.00 0.00 0.00 70 1005.0
20260505225519 29 197 4.8 0.0 0.00 0.00 0.00 69 1004.9
20260505225019 29 134 4.8 0.0 0.00 0.00 0.00 70 1005.0
20260505224527 29 149 4.8 0.0 0.00 0.00 0.00 69 1004.9
20260505224019 30 190 4.8 0.0 0.00 0.00 0.00 69 1004.9
20260505223518 30 165 4.8 0.0 0.00 0.00 0.00 69 1004.9
20260505223019 30 184 4.8 0.0 0.00 0.00 0.00 69 1004.9
20260505222518 30 232 4.8 0.0 0.00 0.00 0.00 69 1004.9
20260505222018 30 93 6.4 0.0 0.00 0.00 0.00 68 1004.9
20260505221517 30 142 4.8 0.0 0.00 0.00 0.00 68 1004.9
20260505221016 30 171 4.8 0.0 0.00 0.00 0.00 69 1005.1
20260505220515 30 194 4.8 0.0 0.00 0.00 0.00 67 1005.0
20260505220015 30 92 6.4 0.0 0.00 0.00 0.00 68 1005.1
20260505215516 30 207 6.4 0.0 0.00 0.00 0.00 67 1005.1